Year,Month,Day,Hour,Minute,Value (Times are PST for temperature in C)
2010,05,24,00,00,9.70
2010,05,24,00,01,9.70
2010,05,24,00,02,9.70
2010,05,24,00,03,9.70
2010,05,24,00,04,9.70
2010,05,24,00,05,9.70
2010,05,24,00,06,9.70
2010,05,24,00,07,9.70
2010,05,24,00,08,9.70
2010,05,24,00,09,9.70
2010,05,24,00,10,9.70
2010,05,24,00,11,9.70
2010,05,24,00,12,9.70
2010,05,24,00,13,9.80
2010,05,24,00,14,9.80
2010,05,24,00,15,9.90
2010,05,24,00,16,9.90
2010,05,24,00,17,9.90
2010,05,24,00,18,10.10
2010,05,24,00,19,10.10
2010,05,24,00,20,10.10
2010,05,24,00,21,10.10
2010,05,24,00,22,10.10
2010,05,24,00,23,10.20
2010,05,24,00,24,10.20
2010,05,24,00,25,10.20
2010,05,24,00,26,10.20
2010,05,24,00,27,10.20
2010,05,24,00,28,10.20
2010,05,24,00,29,10.10
2010,05,24,00,30,10.20
2010,05,24,00,31,10.20
2010,05,24,00,32,10.20
2010,05,24,00,33,10.30
2010,05,24,00,34,10.30
2010,05,24,00,35,10.30
2010,05,24,00,36,10.30
2010,05,24,00,37,10.30
2010,05,24,00,38,10.40
2010,05,24,00,39,10.40
2010,05,24,00,40,10.40
2010,05,24,00,41,10.40
2010,05,24,00,42,10.40
2010,05,24,00,43,10.40
2010,05,24,00,44,10.40
2010,05,24,00,45,10.40
2010,05,24,00,46,10.40
2010,05,24,00,47,10.40
2010,05,24,00,48,10.40
2010,05,24,00,49,10.40
2010,05,24,00,50,10.40
2010,05,24,00,51,10.40
2010,05,24,00,52,10.40
2010,05,24,00,53,10.40
2010,05,24,00,54,10.40
2010,05,24,00,55,10.40
2010,05,24,00,56,10.40
2010,05,24,00,57,10.30
2010,05,24,00,58,10.30
2010,05,24,00,59,10.20
2010,05,24,01,00,10.20
2010,05,24,01,01,10.10
2010,05,24,01,02,10.10
2010,05,24,01,03,10.10
2010,05,24,01,04,9.90
2010,05,24,01,05,9.90
2010,05,24,01,06,9.90
2010,05,24,01,07,9.80
2010,05,24,01,08,9.80
2010,05,24,01,09,9.70
2010,05,24,01,10,9.70
2010,05,24,01,11,9.70
2010,05,24,01,12,9.70
2010,05,24,01,13,9.70
2010,05,24,01,14,9.70
2010,05,24,01,15,9.70
2010,05,24,01,16,9.70
2010,05,24,01,17,9.70
2010,05,24,01,18,9.70
2010,05,24,01,19,9.70
2010,05,24,01,20,9.70
2010,05,24,01,21,9.70
2010,05,24,01,22,9.70
2010,05,24,01,23,9.80
2010,05,24,01,24,9.80
2010,05,24,01,25,9.80
2010,05,24,01,26,9.80
2010,05,24,01,27,9.80
2010,05,24,01,28,9.80
2010,05,24,01,29,9.80
2010,05,24,01,30,9.80
2010,05,24,01,31,9.80
2010,05,24,01,32,9.80
2010,05,24,01,33,9.80
2010,05,24,01,34,9.80
2010,05,24,01,35,9.80
2010,05,24,01,36,9.80
2010,05,24,01,37,9.70
2010,05,24,01,38,9.70
2010,05,24,01,39,9.70
2010,05,24,01,40,9.70
2010,05,24,01,41,9.70
2010,05,24,01,42,9.70
2010,05,24,01,43,9.70
2010,05,24,01,44,9.70
2010,05,24,01,45,9.60
2010,05,24,01,46,9.60
2010,05,24,01,47,9.60
2010,05,24,01,48,9.60
2010,05,24,01,49,9.60
2010,05,24,01,50,9.50
2010,05,24,01,51,9.50
2010,05,24,01,52,9.50
2010,05,24,01,53,9.50
2010,05,24,01,54,9.50
2010,05,24,01,55,9.50
2010,05,24,01,56,9.50
2010,05,24,01,57,9.50
2010,05,24,01,58,9.50
2010,05,24,01,59,9.40
2010,05,24,02,00,9.40
2010,05,24,02,01,9.40
2010,05,24,02,02,9.40
2010,05,24,02,03,9.50
2010,05,24,02,04,9.50
2010,05,24,02,05,9.50
2010,05,24,02,06,9.50
2010,05,24,02,07,9.50
2010,05,24,02,08,9.50
2010,05,24,02,09,9.50
2010,05,24,02,10,9.50
2010,05,24,02,11,9.50
2010,05,24,02,12,9.50
2010,05,24,02,13,9.50
2010,05,24,02,14,9.50
2010,05,24,02,15,9.50
2010,05,24,02,16,9.50
2010,05,24,02,17,9.50
2010,05,24,02,18,9.60
2010,05,24,02,19,9.60
2010,05,24,02,20,9.60
2010,05,24,02,21,9.60
2010,05,24,02,22,9.70
2010,05,24,02,23,9.70
2010,05,24,02,24,9.70
2010,05,24,02,25,9.70
2010,05,24,02,26,9.80
2010,05,24,02,27,9.80
2010,05,24,02,28,9.80
2010,05,24,02,29,9.70
2010,05,24,02,30,9.70
2010,05,24,02,31,9.70
2010,05,24,02,32,9.60
2010,05,24,02,33,9.60
2010,05,24,02,34,9.60
2010,05,24,02,35,9.60
2010,05,24,02,36,9.50
2010,05,24,02,37,9.50
2010,05,24,02,38,9.50
2010,05,24,02,39,9.50
2010,05,24,02,40,9.50
2010,05,24,02,41,9.50
2010,05,24,02,42,9.60
2010,05,24,02,43,9.60
2010,05,24,02,44,9.70
2010,05,24,02,45,9.70
2010,05,24,02,46,9.70
2010,05,24,02,47,9.70
2010,05,24,02,48,9.80
2010,05,24,02,49,9.80
2010,05,24,02,50,9.80
2010,05,24,02,51,9.80
2010,05,24,02,52,9.80
2010,05,24,02,53,9.90
2010,05,24,02,54,9.90
2010,05,24,02,55,9.90
2010,05,24,02,56,9.90
2010,05,24,02,57,9.90
2010,05,24,02,58,9.90
2010,05,24,02,59,9.90
2010,05,24,03,00,9.80
2010,05,24,03,01,9.80
2010,05,24,03,02,9.80
2010,05,24,03,03,9.80
2010,05,24,03,04,9.80
2010,05,24,03,05,9.80
2010,05,24,03,06,9.80
2010,05,24,03,07,9.80
2010,05,24,03,08,9.80
2010,05,24,03,09,9.80
2010,05,24,03,10,9.80
2010,05,24,03,11,9.80
2010,05,24,03,12,9.80
2010,05,24,03,13,9.80
2010,05,24,03,14,9.80
2010,05,24,03,15,9.80
2010,05,24,03,16,9.80
2010,05,24,03,17,9.80
2010,05,24,03,18,9.80
2010,05,24,03,19,9.80
2010,05,24,03,20,9.70
2010,05,24,03,21,9.70
2010,05,24,03,22,9.70
2010,05,24,03,23,9.70
2010,05,24,03,24,9.70
2010,05,24,03,25,9.70
2010,05,24,03,26,9.60
2010,05,24,03,27,9.60
2010,05,24,03,28,9.50
2010,05,24,03,29,9.50
2010,05,24,03,30,9.50
2010,05,24,03,31,9.40
2010,05,24,03,32,9.40
2010,05,24,03,33,9.40
2010,05,24,03,34,9.40
2010,05,24,03,35,9.40
2010,05,24,03,36,9.40
2010,05,24,03,37,9.40
2010,05,24,03,38,9.40
2010,05,24,03,39,9.40
2010,05,24,03,40,9.40
2010,05,24,03,41,9.40
2010,05,24,03,42,9.40
2010,05,24,03,43,9.40
2010,05,24,03,44,9.40
2010,05,24,03,45,9.30
2010,05,24,03,46,9.30
2010,05,24,03,47,9.30
2010,05,24,03,48,9.30
2010,05,24,03,49,9.30
2010,05,24,03,50,9.30
2010,05,24,03,51,9.30
2010,05,24,03,52,9.20
2010,05,24,03,53,9.20
2010,05,24,03,54,9.20
2010,05,24,03,55,9.20
2010,05,24,03,56,9.20
2010,05,24,03,57,9.20
2010,05,24,03,58,9.20
2010,05,24,03,59,9.20
2010,05,24,04,00,9.20
2010,05,24,04,01,9.20
2010,05,24,04,02,9.20
2010,05,24,04,03,9.20
2010,05,24,04,04,9.20
2010,05,24,04,05,9.20
2010,05,24,04,06,9.20
2010,05,24,04,07,9.20
2010,05,24,04,08,9.20
2010,05,24,04,09,9.20
2010,05,24,04,10,9.30
2010,05,24,04,11,9.30
2010,05,24,04,12,9.30
2010,05,24,04,13,9.30
2010,05,24,04,14,9.30
2010,05,24,04,15,9.30
2010,05,24,04,16,9.30
2010,05,24,04,17,9.30
2010,05,24,04,18,9.30
2010,05,24,04,19,9.30
2010,05,24,04,20,9.30
2010,05,24,04,21,9.30
2010,05,24,04,22,9.30
2010,05,24,04,23,9.20
2010,05,24,04,24,9.20
2010,05,24,04,25,9.20
2010,05,24,04,26,9.20
2010,05,24,04,27,9.20
2010,05,24,04,28,9.20
2010,05,24,04,29,9.20
2010,05,24,04,30,9.20
2010,05,24,04,31,9.20
2010,05,24,04,32,9.20
2010,05,24,04,33,9.20
2010,05,24,04,34,9.10
2010,05,24,04,35,9.10
2010,05,24,04,36,9.10
2010,05,24,04,37,9.10
2010,05,24,04,38,9.10
2010,05,24,04,39,9.00
2010,05,24,04,40,9.00
2010,05,24,04,41,9.00
2010,05,24,04,42,9.00
2010,05,24,04,43,9.00
2010,05,24,04,44,9.00
2010,05,24,04,45,9.00
2010,05,24,04,46,9.00
2010,05,24,04,47,9.00
2010,05,24,04,48,9.10
2010,05,24,04,49,9.10
2010,05,24,04,50,9.10
2010,05,24,04,51,9.10
2010,05,24,04,52,9.10
2010,05,24,04,53,9.10
2010,05,24,04,54,9.10
2010,05,24,04,55,9.10
2010,05,24,04,56,9.00
2010,05,24,04,57,9.00
2010,05,24,04,58,9.00
2010,05,24,04,59,9.00
2010,05,24,05,00,9.00
2010,05,24,05,01,8.90
2010,05,24,05,02,8.90
2010,05,24,05,03,8.90
2010,05,24,05,04,8.90
2010,05,24,05,05,8.90
2010,05,24,05,06,8.90
2010,05,24,05,07,8.90
2010,05,24,05,08,8.90
2010,05,24,05,09,8.90
2010,05,24,05,10,8.90
2010,05,24,05,11,8.90
2010,05,24,05,12,8.90
2010,05,24,05,13,8.90
2010,05,24,05,14,8.90
2010,05,24,05,15,8.90
2010,05,24,05,16,8.90
2010,05,24,05,17,8.90
2010,05,24,05,18,8.90
2010,05,24,05,19,8.90
2010,05,24,05,20,8.90
2010,05,24,05,21,8.90
2010,05,24,05,22,8.90
2010,05,24,05,23,8.90
2010,05,24,05,24,8.90
2010,05,24,05,25,8.90
2010,05,24,05,26,8.80
2010,05,24,05,27,8.80
2010,05,24,05,28,8.80
2010,05,24,05,29,8.80
2010,05,24,05,30,8.80
2010,05,24,05,31,8.80
2010,05,24,05,32,8.80
2010,05,24,05,33,8.80
2010,05,24,05,34,8.80
2010,05,24,05,35,8.80
2010,05,24,05,36,8.80
2010,05,24,05,37,8.80
2010,05,24,05,38,8.70
2010,05,24,05,39,8.70
2010,05,24,05,40,8.70
2010,05,24,05,41,8.70
2010,05,24,05,42,8.70
2010,05,24,05,43,8.70
2010,05,24,05,44,8.70
2010,05,24,05,45,8.70
2010,05,24,05,46,8.70
2010,05,24,05,47,8.70
2010,05,24,05,48,8.70
2010,05,24,05,49,8.70
2010,05,24,05,50,8.70
2010,05,24,05,51,8.70
2010,05,24,05,52,8.70
2010,05,24,05,53,8.70
2010,05,24,05,54,8.70
2010,05,24,05,55,8.70
2010,05,24,05,56,8.70
2010,05,24,05,57,8.70
2010,05,24,05,58,8.70
2010,05,24,05,59,8.70
2010,05,24,06,00,8.70
2010,05,24,06,01,8.70
2010,05,24,06,02,8.60
2010,05,24,06,03,8.60
2010,05,24,06,04,8.60
2010,05,24,06,05,8.60
2010,05,24,06,06,8.60
2010,05,24,06,07,8.60
2010,05,24,06,08,8.60
2010,05,24,06,09,8.60
2010,05,24,06,10,8.60
2010,05,24,06,11,8.60
2010,05,24,06,12,8.60
2010,05,24,06,13,8.60
2010,05,24,06,14,8.60
2010,05,24,06,15,8.60
2010,05,24,06,16,8.60
2010,05,24,06,17,8.60
2010,05,24,06,18,8.60
2010,05,24,06,19,8.60
2010,05,24,06,20,8.60
2010,05,24,06,21,8.60
2010,05,24,06,22,8.60
2010,05,24,06,23,8.60
2010,05,24,06,24,8.60
2010,05,24,06,25,8.50
2010,05,24,06,26,8.50
2010,05,24,06,27,8.50
2010,05,24,06,28,8.50
2010,05,24,06,29,8.50
2010,05,24,06,30,8.50
2010,05,24,06,31,8.50
2010,05,24,06,32,8.50
2010,05,24,06,33,8.50
2010,05,24,06,34,8.50
2010,05,24,06,35,8.50
2010,05,24,06,36,8.50
2010,05,24,06,37,8.50
2010,05,24,06,38,8.60
2010,05,24,06,39,8.60
2010,05,24,06,40,8.60
2010,05,24,06,41,8.60
2010,05,24,06,42,8.60
2010,05,24,06,43,8.60
2010,05,24,06,44,8.60
2010,05,24,06,45,8.70
2010,05,24,06,46,8.70
2010,05,24,06,47,8.70
2010,05,24,06,48,8.70
2010,05,24,06,49,8.70
2010,05,24,06,50,8.70
2010,05,24,06,51,8.70
2010,05,24,06,52,8.70
2010,05,24,06,53,8.70
2010,05,24,06,54,8.70
2010,05,24,06,55,8.70
2010,05,24,06,56,8.70
2010,05,24,06,57,8.70
2010,05,24,06,58,8.70
2010,05,24,06,59,8.70
2010,05,24,07,00,8.70
2010,05,24,07,01,8.70
2010,05,24,07,02,8.70
2010,05,24,07,03,8.70
2010,05,24,07,04,8.70
2010,05,24,07,05,8.70
2010,05,24,07,06,8.70
2010,05,24,07,07,8.70
2010,05,24,07,08,8.70
2010,05,24,07,09,8.70
2010,05,24,07,10,8.80
2010,05,24,07,11,8.80
2010,05,24,07,12,8.80
2010,05,24,07,13,8.80
2010,05,24,07,14,8.90
2010,05,24,07,15,8.90
2010,05,24,07,16,8.90
2010,05,24,07,17,8.90
2010,05,24,07,18,8.90
2010,05,24,07,19,8.90
2010,05,24,07,20,8.90
2010,05,24,07,21,8.90
2010,05,24,07,22,8.90
2010,05,24,07,23,8.90
2010,05,24,07,24,8.90
2010,05,24,07,25,8.90
2010,05,24,07,26,8.90
2010,05,24,07,27,8.90
2010,05,24,07,28,9.00
2010,05,24,07,29,9.00
2010,05,24,07,30,9.00
2010,05,24,07,31,9.00
2010,05,24,07,32,9.00
2010,05,24,07,33,9.00
2010,05,24,07,34,9.00
2010,05,24,07,35,9.00
2010,05,24,07,36,9.00
2010,05,24,07,37,9.10
2010,05,24,07,38,9.10
2010,05,24,07,39,9.20
2010,05,24,07,40,9.20
2010,05,24,07,41,9.20
2010,05,24,07,42,9.20
2010,05,24,07,43,9.30
2010,05,24,07,44,9.30
2010,05,24,07,45,9.30
2010,05,24,07,46,9.30
2010,05,24,07,47,9.30
2010,05,24,07,48,9.30
2010,05,24,07,49,9.30
2010,05,24,07,50,9.40
2010,05,24,07,51,9.40
2010,05,24,07,52,9.40
2010,05,24,07,53,9.40
2010,05,24,07,54,9.40
2010,05,24,07,55,9.40
2010,05,24,07,56,9.50
2010,05,24,07,57,9.50
2010,05,24,07,58,9.50
2010,05,24,07,59,9.40
2010,05,24,08,00,9.40
2010,05,24,08,01,9.40
2010,05,24,08,02,9.40
2010,05,24,08,03,9.50
2010,05,24,08,04,9.50
2010,05,24,08,05,9.70
2010,05,24,08,06,9.70
2010,05,24,08,07,9.70
2010,05,24,08,08,9.70
2010,05,24,08,09,9.60
2010,05,24,08,10,9.60
2010,05,24,08,11,9.60
2010,05,24,08,12,9.60
2010,05,24,08,13,9.60
2010,05,24,08,14,9.50
2010,05,24,08,15,9.50
2010,05,24,08,16,9.50
2010,05,24,08,17,9.50
2010,05,24,08,18,9.40
2010,05,24,08,19,9.40
2010,05,24,08,20,9.40
2010,05,24,08,21,9.40
2010,05,24,08,22,9.30
2010,05,24,08,23,9.30
2010,05,24,08,24,9.20
2010,05,24,08,25,9.20
2010,05,24,08,26,9.20
2010,05,24,08,27,9.20
2010,05,24,08,28,9.30
2010,05,24,08,29,9.30
2010,05,24,08,30,9.30
2010,05,24,08,31,9.30
2010,05,24,08,32,9.20
2010,05,24,08,33,9.20
2010,05,24,08,34,9.20
2010,05,24,08,35,9.10
2010,05,24,08,36,9.10
2010,05,24,08,37,9.10
2010,05,24,08,38,9.10
2010,05,24,08,39,9.10
2010,05,24,08,40,9.20
2010,05,24,08,41,9.20
2010,05,24,08,42,9.20
2010,05,24,08,43,9.10
2010,05,24,08,44,9.10
2010,05,24,08,45,9.10
2010,05,24,08,46,9.10
2010,05,24,08,47,9.10
2010,05,24,08,48,9.10
2010,05,24,08,49,9.10
2010,05,24,08,50,9.10
2010,05,24,08,51,9.10
2010,05,24,08,52,9.00
2010,05,24,08,53,9.00
2010,05,24,08,54,9.10
2010,05,24,08,55,9.10
2010,05,24,08,56,9.10
2010,05,24,08,57,9.10
2010,05,24,08,58,9.10
2010,05,24,08,59,9.10
2010,05,24,09,00,9.10
2010,05,24,09,01,9.10
2010,05,24,09,02,9.20
2010,05,24,09,03,9.20
2010,05,24,09,04,9.20
2010,05,24,09,05,9.30
2010,05,24,09,06,9.30
2010,05,24,09,07,9.30
2010,05,24,09,08,9.20
2010,05,24,09,09,9.20
2010,05,24,09,10,9.30
2010,05,24,09,11,9.40
2010,05,24,09,12,9.50
2010,05,24,09,13,9.60
2010,05,24,09,14,9.70
2010,05,24,09,15,9.90
2010,05,24,09,16,10.00
2010,05,24,09,17,10.10
2010,05,24,09,18,10.20
2010,05,24,09,19,10.30
2010,05,24,09,20,10.30
2010,05,24,09,21,10.40
2010,05,24,09,22,10.40
2010,05,24,09,23,10.40
2010,05,24,09,24,10.30
2010,05,24,09,25,10.40
2010,05,24,09,26,10.30
2010,05,24,09,27,10.30
2010,05,24,09,28,10.40
2010,05,24,09,29,10.30
2010,05,24,09,30,10.20
2010,05,24,09,31,10.30
2010,05,24,09,32,10.40
2010,05,24,09,33,10.50
2010,05,24,09,34,10.60
2010,05,24,09,35,10.80
2010,05,24,09,36,10.90
2010,05,24,09,37,11.00
2010,05,24,09,38,11.10
2010,05,24,09,39,11.10
2010,05,24,09,40,11.10
2010,05,24,09,41,11.20
2010,05,24,09,42,11.10
2010,05,24,09,43,11.20
2010,05,24,09,44,11.20
2010,05,24,09,45,11.20
2010,05,24,09,46,11.20
2010,05,24,09,47,11.20
2010,05,24,09,48,11.40
2010,05,24,09,49,11.40
2010,05,24,09,50,11.50
2010,05,24,09,51,11.60
2010,05,24,09,52,11.60
2010,05,24,09,53,11.60
2010,05,24,09,54,11.70
2010,05,24,09,55,11.70
2010,05,24,09,56,11.60
2010,05,24,09,57,11.60
2010,05,24,09,58,11.60
2010,05,24,09,59,11.60
2010,05,24,10,00,11.60
2010,05,24,10,01,11.60
2010,05,24,10,02,11.60
2010,05,24,10,03,11.60
2010,05,24,10,04,11.50
2010,05,24,10,05,11.60
2010,05,24,10,06,11.60
2010,05,24,10,07,11.60
2010,05,24,10,08,11.60
2010,05,24,10,09,11.60
2010,05,24,10,10,11.60
2010,05,24,10,11,11.40
2010,05,24,10,12,11.50
2010,05,24,10,13,11.60
2010,05,24,10,14,11.60
2010,05,24,10,15,11.60
2010,05,24,10,16,11.60
2010,05,24,10,17,11.60
2010,05,24,10,18,11.60
2010,05,24,10,19,11.50
2010,05,24,10,20,11.40
2010,05,24,10,21,11.40
2010,05,24,10,22,11.40
2010,05,24,10,23,11.30
2010,05,24,10,24,11.30
2010,05,24,10,25,11.20
2010,05,24,10,26,11.10
2010,05,24,10,27,11.20
2010,05,24,10,28,11.10
2010,05,24,10,29,11.10
2010,05,24,10,30,11.10
2010,05,24,10,31,11.10
2010,05,24,10,32,11.10
2010,05,24,10,33,11.20
2010,05,24,10,34,11.20
2010,05,24,10,35,11.10
2010,05,24,10,36,11.10
2010,05,24,10,37,10.90
2010,05,24,10,38,10.90
2010,05,24,10,39,10.80
2010,05,24,10,40,10.70
2010,05,24,10,41,10.80
2010,05,24,10,42,10.80
2010,05,24,10,43,10.70
2010,05,24,10,44,10.70
2010,05,24,10,45,10.70
2010,05,24,10,46,10.70
2010,05,24,10,47,10.70
2010,05,24,10,48,10.90
2010,05,24,10,49,11.00
2010,05,24,10,50,11.10
2010,05,24,10,51,11.10
2010,05,24,10,52,11.20
2010,05,24,10,53,11.30
2010,05,24,10,54,11.40
2010,05,24,10,55,11.50
2010,05,24,10,56,11.60
2010,05,24,10,57,11.50
2010,05,24,10,58,11.30
2010,05,24,10,59,11.20
2010,05,24,11,00,11.10
2010,05,24,11,01,11.10
2010,05,24,11,02,11.20
2010,05,24,11,03,11.20
2010,05,24,11,04,11.10
2010,05,24,11,05,11.10
2010,05,24,11,06,11.10
2010,05,24,11,07,11.10
2010,05,24,11,08,11.20
2010,05,24,11,09,11.30
2010,05,24,11,10,11.30
2010,05,24,11,11,11.40
2010,05,24,11,12,11.50
2010,05,24,11,13,11.60
2010,05,24,11,14,11.60
2010,05,24,11,15,11.60
2010,05,24,11,16,11.70
2010,05,24,11,17,11.80
2010,05,24,11,18,12.00
2010,05,24,11,19,12.00
2010,05,24,11,20,11.90
2010,05,24,11,21,11.90
2010,05,24,11,22,11.80
2010,05,24,11,23,11.90
2010,05,24,11,24,11.80
2010,05,24,11,25,11.80
2010,05,24,11,26,11.80
2010,05,24,11,27,11.70
2010,05,24,11,28,11.70
2010,05,24,11,29,11.80
2010,05,24,11,30,11.90
2010,05,24,11,31,11.90
2010,05,24,11,32,12.00
2010,05,24,11,33,11.90
2010,05,24,11,34,11.90
2010,05,24,11,35,11.90
2010,05,24,11,36,12.00
2010,05,24,11,37,12.00
2010,05,24,11,38,12.00
2010,05,24,11,39,12.10
2010,05,24,11,40,12.20
2010,05,24,11,41,12.10
2010,05,24,11,42,12.10
2010,05,24,11,43,12.10
2010,05,24,11,44,12.10
2010,05,24,11,45,12.10
2010,05,24,11,46,12.00
2010,05,24,11,47,11.90
2010,05,24,11,48,12.00
2010,05,24,11,49,12.10
2010,05,24,11,50,12.00
2010,05,24,11,51,12.10
2010,05,24,11,52,12.20
2010,05,24,11,53,12.20
2010,05,24,11,54,12.40
2010,05,24,11,55,12.40
2010,05,24,11,56,12.30
2010,05,24,11,57,12.30
2010,05,24,11,58,12.30
2010,05,24,11,59,12.20
2010,05,24,12,00,12.20
2010,05,24,12,01,12.30
2010,05,24,12,02,12.30
2010,05,24,12,03,12.40
2010,05,24,12,04,12.50
2010,05,24,12,05,12.50
2010,05,24,12,06,12.40
2010,05,24,12,07,12.40
2010,05,24,12,08,12.30
2010,05,24,12,09,12.40
2010,05,24,12,10,12.60
2010,05,24,12,11,12.70
2010,05,24,12,12,12.60
2010,05,24,12,13,12.60
2010,05,24,12,14,12.50
2010,05,24,12,15,12.40
2010,05,24,12,16,12.30
2010,05,24,12,17,12.40
2010,05,24,12,18,12.50
2010,05,24,12,19,12.60
2010,05,24,12,20,12.70
2010,05,24,12,21,12.70
2010,05,24,12,22,12.80
2010,05,24,12,23,12.80
2010,05,24,12,24,12.90
2010,05,24,12,25,13.00
2010,05,24,12,26,13.20
2010,05,24,12,27,13.30
2010,05,24,12,28,13.40
2010,05,24,12,29,13.40
2010,05,24,12,30,13.30
2010,05,24,12,31,13.20
2010,05,24,12,32,13.20
2010,05,24,12,33,13.00
2010,05,24,12,34,12.90
2010,05,24,12,35,13.00
2010,05,24,12,36,13.00
2010,05,24,12,37,13.10
2010,05,24,12,38,13.10
2010,05,24,12,39,13.30
2010,05,24,12,40,13.40
2010,05,24,12,41,13.30
2010,05,24,12,42,13.20
2010,05,24,12,43,13.20
2010,05,24,12,44,13.20
2010,05,24,12,45,13.20
2010,05,24,12,46,13.20
2010,05,24,12,47,13.20
2010,05,24,12,48,13.10
2010,05,24,12,49,13.10
2010,05,24,12,50,13.10
2010,05,24,12,51,13.30
2010,05,24,12,52,13.30
2010,05,24,12,53,13.40
2010,05,24,12,54,13.40
2010,05,24,12,55,13.50
2010,05,24,12,56,13.50
2010,05,24,12,57,13.50
2010,05,24,12,58,13.40
2010,05,24,12,59,13.30
2010,05,24,13,00,13.10
2010,05,24,13,01,13.00
2010,05,24,13,02,13.00
2010,05,24,13,03,13.10
2010,05,24,13,04,13.10
2010,05,24,13,05,13.10
2010,05,24,13,06,13.30
2010,05,24,13,07,13.40
2010,05,24,13,08,13.50
2010,05,24,13,09,13.60
2010,05,24,13,10,13.60
2010,05,24,13,11,13.50
2010,05,24,13,12,13.40
2010,05,24,13,13,13.30
2010,05,24,13,14,13.40
2010,05,24,13,15,13.50
2010,05,24,13,16,13.60
2010,05,24,13,17,13.70
2010,05,24,13,18,13.70
2010,05,24,13,19,13.80
2010,05,24,13,20,13.90
2010,05,24,13,21,13.90
2010,05,24,13,22,13.90
2010,05,24,13,23,14.00
2010,05,24,13,24,14.00
2010,05,24,13,25,13.90
2010,05,24,13,26,13.90
2010,05,24,13,27,13.90
2010,05,24,13,28,14.00
2010,05,24,13,29,14.10
2010,05,24,13,30,14.00
2010,05,24,13,31,14.00
2010,05,24,13,32,13.80
2010,05,24,13,33,13.80
2010,05,24,13,34,13.80
2010,05,24,13,35,13.90
2010,05,24,13,36,13.90
2010,05,24,13,37,14.00
2010,05,24,13,38,14.20
2010,05,24,13,39,14.20
2010,05,24,13,40,14.20
2010,05,24,13,41,14.20
2010,05,24,13,42,14.20
2010,05,24,13,43,14.20
2010,05,24,13,44,14.20
2010,05,24,13,45,14.20
2010,05,24,13,46,14.20
2010,05,24,13,47,14.20
2010,05,24,13,48,14.30
2010,05,24,13,49,14.30
2010,05,24,13,50,14.30
2010,05,24,13,51,14.30
2010,05,24,13,52,14.30
2010,05,24,13,53,14.40
2010,05,24,13,54,14.50
2010,05,24,13,55,14.60
2010,05,24,13,56,14.70
2010,05,24,13,57,14.80
2010,05,24,13,58,14.80
2010,05,24,13,59,14.90
2010,05,24,14,00,14.70
2010,05,24,14,01,14.50
2010,05,24,14,02,14.20
2010,05,24,14,03,14.10
2010,05,24,14,04,14.00
2010,05,24,14,05,13.90
2010,05,24,14,06,13.80
2010,05,24,14,07,13.70
2010,05,24,14,08,13.60
2010,05,24,14,09,13.60
2010,05,24,14,10,13.60
2010,05,24,14,11,13.50
2010,05,24,14,12,13.40
2010,05,24,14,13,13.40
2010,05,24,14,14,13.30
2010,05,24,14,15,13.30
2010,05,24,14,16,13.30
2010,05,24,14,17,13.40
2010,05,24,14,18,13.50
2010,05,24,14,19,13.60
2010,05,24,14,20,13.70
2010,05,24,14,21,13.80
2010,05,24,14,22,13.90
2010,05,24,14,23,13.90
2010,05,24,14,24,14.00
2010,05,24,14,25,14.10
2010,05,24,14,26,14.10
2010,05,24,14,27,14.20
2010,05,24,14,28,14.20
2010,05,24,14,29,14.20
2010,05,24,14,30,14.30
2010,05,24,14,31,14.30
2010,05,24,14,32,14.30
2010,05,24,14,33,14.30
2010,05,24,14,34,14.30
2010,05,24,14,35,14.40
2010,05,24,14,36,14.30
2010,05,24,14,37,14.30
2010,05,24,14,38,14.30
2010,05,24,14,39,14.30
2010,05,24,14,40,14.30
2010,05,24,14,41,14.30
2010,05,24,14,42,14.30
2010,05,24,14,43,14.40
2010,05,24,14,44,14.30
2010,05,24,14,45,14.40
2010,05,24,14,46,14.40
2010,05,24,14,47,14.30
2010,05,24,14,48,14.40
2010,05,24,14,49,14.40
2010,05,24,14,50,14.40
2010,05,24,14,51,14.40
2010,05,24,14,52,14.40
2010,05,24,14,53,14.50
2010,05,24,14,54,14.60
2010,05,24,14,55,14.60
2010,05,24,14,56,14.60
2010,05,24,14,57,14.60
2010,05,24,14,58,14.60
2010,05,24,14,59,14.70
2010,05,24,15,00,14.80
2010,05,24,15,01,14.90
2010,05,24,15,02,14.90
2010,05,24,15,03,14.90
2010,05,24,15,04,14.90
2010,05,24,15,05,14.90
2010,05,24,15,06,14.90
2010,05,24,15,07,14.80
2010,05,24,15,08,14.90
2010,05,24,15,09,14.90
2010,05,24,15,10,14.80
2010,05,24,15,11,14.70
2010,05,24,15,12,14.60
2010,05,24,15,13,14.50
2010,05,24,15,14,14.60
2010,05,24,15,15,14.60
2010,05,24,15,16,14.60
2010,05,24,15,17,14.50
2010,05,24,15,18,14.40
2010,05,24,15,19,14.20
2010,05,24,15,20,14.10
2010,05,24,15,21,14.10
2010,05,24,15,22,14.20
2010,05,24,15,23,14.20
2010,05,24,15,24,14.30
2010,05,24,15,25,14.40
2010,05,24,15,26,14.50
2010,05,24,15,27,14.50
2010,05,24,15,28,14.50
2010,05,24,15,29,14.40
2010,05,24,15,30,14.40
2010,05,24,15,31,14.30
2010,05,24,15,32,14.40
2010,05,24,15,33,14.50
2010,05,24,15,34,14.50
2010,05,24,15,35,14.60
2010,05,24,15,36,14.70
2010,05,24,15,37,14.80
2010,05,24,15,38,14.80
2010,05,24,15,39,14.80
2010,05,24,15,40,14.80
2010,05,24,15,41,14.70
2010,05,24,15,42,14.60
2010,05,24,15,43,14.50
2010,05,24,15,44,14.40
2010,05,24,15,45,14.40
2010,05,24,15,46,14.40
2010,05,24,15,47,14.30
2010,05,24,15,48,14.20
2010,05,24,15,49,14.10
2010,05,24,15,50,14.10
2010,05,24,15,51,14.10
2010,05,24,15,52,14.20
2010,05,24,15,53,14.20
2010,05,24,15,54,14.20
2010,05,24,15,55,14.10
2010,05,24,15,56,13.90
2010,05,24,15,57,13.90
2010,05,24,15,58,13.90
2010,05,24,15,59,13.80
2010,05,24,16,00,13.70
2010,05,24,16,01,13.60
2010,05,24,16,02,13.50
2010,05,24,16,03,13.50
2010,05,24,16,04,13.50
2010,05,24,16,05,13.50
2010,05,24,16,06,13.40
2010,05,24,16,07,13.40
2010,05,24,16,08,13.30
2010,05,24,16,09,13.30
2010,05,24,16,10,13.30
2010,05,24,16,11,13.30
2010,05,24,16,12,13.40
2010,05,24,16,13,13.40
2010,05,24,16,14,13.40
2010,05,24,16,15,13.30
2010,05,24,16,16,13.30
2010,05,24,16,17,13.30
2010,05,24,16,18,13.30
2010,05,24,16,19,13.30
2010,05,24,16,20,13.20
2010,05,24,16,21,13.30
2010,05,24,16,22,13.30
2010,05,24,16,23,13.40
2010,05,24,16,24,13.50
2010,05,24,16,25,13.50
2010,05,24,16,26,13.50
2010,05,24,16,27,13.40
2010,05,24,16,28,13.30
2010,05,24,16,29,13.30
2010,05,24,16,30,13.40
2010,05,24,16,31,13.40
2010,05,24,16,32,13.50
2010,05,24,16,33,13.50
2010,05,24,16,34,13.50
2010,05,24,16,35,13.50
2010,05,24,16,36,13.60
2010,05,24,16,37,13.60
2010,05,24,16,38,13.50
2010,05,24,16,39,13.40
2010,05,24,16,40,13.40
2010,05,24,16,41,13.40
2010,05,24,16,42,13.50
2010,05,24,16,43,13.60
2010,05,24,16,44,13.70
2010,05,24,16,45,13.70
2010,05,24,16,46,13.70
2010,05,24,16,47,13.70
2010,05,24,16,48,13.80
2010,05,24,16,49,13.80
2010,05,24,16,50,13.90
2010,05,24,16,51,14.00
2010,05,24,16,52,14.00
2010,05,24,16,53,14.00
2010,05,24,16,54,14.10
2010,05,24,16,55,14.20
2010,05,24,16,56,14.30
2010,05,24,16,57,14.30
2010,05,24,16,58,14.40
2010,05,24,16,59,14.50
2010,05,24,17,00,14.60
2010,05,24,17,01,14.60
2010,05,24,17,02,14.60
2010,05,24,17,03,14.70
2010,05,24,17,04,14.70
2010,05,24,17,05,14.70
2010,05,24,17,06,14.80
2010,05,24,17,07,14.80
2010,05,24,17,08,14.80
2010,05,24,17,09,14.80
2010,05,24,17,10,14.80
2010,05,24,17,11,14.80
2010,05,24,17,12,14.80
2010,05,24,17,13,14.80
2010,05,24,17,14,14.80
2010,05,24,17,15,14.80
2010,05,24,17,16,14.80
2010,05,24,17,17,14.90
2010,05,24,17,18,15.00
2010,05,24,17,19,15.00
2010,05,24,17,20,15.10
2010,05,24,17,21,15.20
2010,05,24,17,22,15.30
2010,05,24,17,23,15.40
2010,05,24,17,24,15.50
2010,05,24,17,25,15.60
2010,05,24,17,26,15.60
2010,05,24,17,27,15.80
2010,05,24,17,28,15.80
2010,05,24,17,29,15.90
2010,05,24,17,30,16.00
2010,05,24,17,31,16.10
2010,05,24,17,32,16.10
2010,05,24,17,33,16.20
2010,05,24,17,34,16.20
2010,05,24,17,35,16.20
2010,05,24,17,36,16.20
2010,05,24,17,37,16.20
2010,05,24,17,38,16.30
2010,05,24,17,39,16.30
2010,05,24,17,40,16.30
2010,05,24,17,41,16.30